Theta_e
332 332 338 337 333 338 335 329 329 330 333 338 340 341 339 340 341 342 343 341 341 345 345 342 341 341 343 343 342 342 340 340 340 340 340 339 338 338 337 337 337 337 336 334 333 334 334 334 334 334 334 334 333 332 332 331 326 322 321 321 321 320 320 319 318 318 318 318 318 319 319 319 320 318 317 317 317 315 311 308 308 307 307 308 308 309
331 332 334 334 334 339 334 328 330 333 337 340 343 341 341 344 343 342 344 342 340 345 346 341 340 343 343 342 341 341 342 342 341 340 340 339 338 338 337 337 337 336 335 334 334 334 334 334 334 334 334 334 333 332 332 330 324 321 322 322 321 320 320 319 318 318 318 318 318 319 319 319 320 318 317 318 317 314 310 308 308 308 308 307 308 309
334 335 334 334 337 339 334 331 332 334 339 343 342 341 342 344 340 338 341 342 339 338 343 342 340 344 343 341 340 341 342 342 340 339 339 339 338 338 337 337 337 336 336 336 334 334 334 334 333 333 333 333 333 332 331 329 324 322 321 321 321 321 320 319 318 318 318 318 318 318 319 319 319 317 317 318 316 313 310 308 308 308 308 308 308 309
337 334 332 333 337 340 336 334 334 334 340 343 340 341 342 340 339 338 337 341 340 337 342 343 341 346 345 341 341 340 340 340 339 340 339 338 338 337 337 336 337 336 336 336 335 334 333 333 333 332 332 333 332 332 330 327 323 322 321 320 321 321 321 320 318 318 318 318 319 319 319 319 318 317 318 317 315 312 310 308 309 309 309 308 308 309
335 330 331 333 337 340 336 334 335 336 340 339 337 341 344 342 342 341 338 342 342 338 341 339 341 349 345 343 345 340 339 340 339 340 340 339 338 337 337 336 336 336 336 336 335 334 333 332 332 331 331 332 331 331 330 327 324 322 322 321 322 322 321 320 318 318 318 318 319 319 319 318 318 318 317 316 313 312 310 310 310 310 309 308 308 309
335 332 332 333 334 337 337 339 337 337 343 339 338 343 345 344 344 344 343 345 345 342 339 336 342 351 345 342 343 341 341 341 340 341 340 339 338 337 337 336 336 336 335 335 335 334 333 332 332 331 330 330 330 330 330 328 325 324 323 323 323 323 322 319 318 318 317 318 319 319 319 318 318 317 316 316 315 314 313 313 313 311 309 307 307 309
336 333 331 333 334 335 338 340 336 339 347 341 337 342 343 342 343 344 344 344 346 344 339 338 342 348 348 345 341 340 343 342 340 341 340 339 338 337 337 336 336 335 335 335 335 334 333 333 331 330 329 329 329 329 329 328 325 324 324 323 323 323 321 319 318 318 317 317 318 319 320 319 319 318 317 317 317 317 316 315 314 312 309 307 307 308
332 332 333 335 337 340 341 338 337 341 347 341 336 340 341 340 341 343 343 343 344 342 341 344 343 343 348 345 337 337 342 342 341 341 340 338 337 337 337 336 335 335 335 335 335 335 333 332 332 330 329 329 329 329 328 327 325 324 324 323 323 322 320 319 318 318 317 317 318 319 320 319 319 319 319 318 317 317 317 316 316 313 309 307 307 307
329 332 335 336 339 344 343 338 337 339 342 339 338 339 340 339 340 343 343 343 343 340 343 346 341 341 349 346 337 336 340 342 342 341 340 339 337 337 337 336 335 335 335 335 334 334 333 332 332 331 330 329 329 328 328 327 326 324 324 323 323 322 320 319 318 318 317 317 317 318 320 319 319 319 319 318 318 318 317 317 317 314 311 308 307 307
332 332 333 335 341 343 340 336 335 339 341 339 338 339 339 340 342 343 342 343 342 342 346 345 340 341 348 349 343 339 344 347 344 339 338 339 337 336 336 335 335 334 334 334 334 334 332 332 332 331 330 329 328 328 327 327 326 325 324 323 322 321 320 318 318 318 317 317 317 318 319 320 319 319 319 319 318 318 317 317 317 315 312 310 307 306
331 330 330 333 337 338 335 334 334 337 338 337 339 341 340 341 343 343 342 339 340 345 346 341 339 339 342 350 349 345 349 350 345 341 339 339 338 336 336 335 334 335 334 334 334 333 332 332 332 331 330 328 327 327 326 326 326 325 323 323 322 321 320 318 318 318 318 317 317 317 318 319 319 319 319 319 318 318 318 317 318 317 314 312 309 308
330 332 333 332 332 331 332 335 336 338 338 339 343 343 342 342 341 342 341 339 341 343 341 338 338 337 339 347 350 345 343 341 340 342 342 339 337 335 334 334 334 334 334 334 334 333 332 332 331 329 329 328 327 325 325 325 325 324 323 322 322 321 320 318 318 318 318 318 317 317 318 318 319 320 319 319 319 319 319 318 319 318 316 314 312 310
331 332 332 331 331 329 332 337 337 338 339 341 343 341 340 340 340 342 341 341 343 338 335 338 338 337 341 345 346 342 336 334 334 336 339 338 336 335 334 333 333 334 334 334 334 334 333 333 330 328 328 327 326 325 324 324 323 323 323 322 322 321 320 319 318 318 318 318 317 317 317 318 319 320 320 320 319 319 319 319 319 319 318 317 315 315
333 331 328 328 331 329 331 338 340 340 341 341 341 339 339 339 340 342 340 338 340 336 335 337 337 339 342 338 337 336 331 331 330 330 334 336 335 333 333 333 333 334 334 334 334 333 333 332 329 328 327 326 325 325 324 323 323 322 322 321 321 321 321 319 318 318 318 318 318 317 317 318 318 319 319 319 319 319 320 320 320 320 319 319 318 318
335 331 328 329 334 332 330 334 337 340 340 337 338 338 338 338 335 336 339 337 336 337 338 335 335 341 337 329 332 331 329 333 332 331 334 334 333 333 332 333 334 334 334 334 334 334 333 331 330 328 327 326 326 325 324 323 322 322 321 321 321 321 321 320 318 318 317 317 317 317 317 318 318 318 319 319 319 319 320 320 320 320 320 319 319 319
334 332 331 329 332 331 330 331 331 336 340 334 333 336 336 338 337 335 336 338 338 341 342 338 339 342 335 329 334 331 332 337 335 334 337 334 334 335 334 335 335 334 334 334 334 334 333 331 330 329 327 326 326 325 324 323 322 322 321 321 321 321 321 321 319 317 317 317 317 317 317 317 318 318 319 319 319 319 320 320 320 320 320 320 319 320
334 331 329 329 329 329 332 333 330 335 340 334 332 336 335 334 338 335 329 331 336 340 340 336 337 340 336 330 329 329 333 338 337 337 337 335 336 337 336 335 335 334 334 334 333 333 332 330 329 329 327 326 326 325 324 324 323 323 322 321 321 320 320 320 320 318 316 316 316 317 317 317 318 319 320 320 319 320 320 320 320 320 320 320 319 320
335 333 333 334 331 329 331 331 330 331 334 336 338 337 330 326 332 338 336 335 337 337 335 334 333 336 336 331 329 331 333 335 339 340 336 334 336 336 336 334 334 334 333 333 334 333 332 330 329 329 328 327 326 325 325 324 324 324 323 322 321 320 320 320 320 319 317 316 316 317 317 318 318 319 320 320 319 320 320 320 321 320 320 320 320 320
337 339 339 337 333 330 329 330 332 329 327 334 339 332 326 327 330 333 333 333 334 334 332 333 334 335 334 331 330 332 334 332 336 341 338 336 337 336 334 333 334 334 334 334 334 333 332 330 328 329 328 327 327 326 325 324 324 323 322 322 321 321 321 321 321 320 317 316 316 316 317 318 318 319 320 320 319 319 320 320 321 321 320 320 320 320
334 339 335 329 330 329 329 333 337 336 329 327 331 330 330 334 333 330 329 330 335 336 334 333 335 336 333 331 330 330 332 332 333 342 344 341 338 334 331 331 333 334 335 334 333 333 333 330 328 328 328 328 327 326 325 324 323 323 322 322 321 321 320 320 320 319 318 316 316 316 317 317 318 319 320 320 319 319 319 320 321 321 321 320 320 320
330 332 330 327 327 328 333 337 338 340 335 329 331 332 331 330 327 327 328 330 334 338 340 339 335 334 332 329 329 331 331 330 330 336 341 339 337 334 330 330 332 333 334 334 333 333 332 330 329 328 328 328 328 327 326 325 324 323 322 322 321 320 320 319 319 318 318 316 316 316 317 317 318 319 320 320 319 318 318 319 320 320 321 321 321 320
328 330 332 329 327 334 343 339 333 336 337 338 339 335 337 335 330 330 328 329 334 334 339 344 337 335 334 328 329 332 330 328 328 333 338 338 339 339 336 334 334 334 334 334 333 333 333 330 328 329 328 327 327 327 326 325 324 323 322 322 321 320 320 319 318 318 317 316 316 316 316 317 318 319 320 320 319 318 318 318 318 319 321 321 321 320
338 343 338 331 333 341 340 329 324 328 332 338 335 331 339 339 337 342 334 328 334 329 331 342 338 334 335 330 331 333 329 327 327 331 336 336 338 341 340 339 338 335 334 334 334 334 333 330 329 329 328 327 327 327 326 325 325 324 323 322 321 321 320 320 319 319 318 317 316 316 317 317 318 318 319 319 319 319 318 318 317 318 320 321 320 320
337 340 332 332 344 348 338 330 328 329 331 334 331 332 333 328 334 349 341 336 340 330 328 337 335 336 340 333 331 332 329 329 328 329 332 332 336 340 341 341 339 335 334 333 334 335 331 329 329 329 328 328 327 327 326 326 325 324 323 322 322 321 321 321 320 319 318 318 317 317 317 317 317 317 318 318 318 318 318 317 317 318 319 320 320 319
327 330 332 334 340 339 338 342 338 334 336 334 333 336 333 327 333 337 335 342 342 328 331 338 334 338 339 332 332 332 330 331 331 329 330 329 331 336 339 341 339 337 336 334 332 334 334 333 331 329 328 328 328 327 326 326 325 324 324 323 322 322 321 321 320 320 319 318 318 317 317 317 317 317 317 318 318 318 317 317 317 318 319 320 320 319
331 333 338 338 337 335 339 343 333 328 336 335 334 340 337 333 334 325 328 345 341 329 335 341 338 341 338 332 333 333 331 332 332 331 331 328 328 330 334 337 339 339 339 336 332 331 333 334 332 329 329 329 328 328 327 326 326 325 324 323 323 322 321 321 321 320 319 319 318 318 317 317 317 317 317 317 317 318 317 316 317 318 319 320 320 319
345 339 338 341 342 339 341 342 331 330 342 342 339 342 340 336 337 335 335 340 339 339 338 334 335 342 339 334 334 333 333 333 332 332 333 331 329 328 329 330 331 332 334 335 335 334 333 334 332 328 328 329 329 329 328 327 327 326 325 324 323 322 322 321 321 320 319 319 319 318 318 318 318 317 317 317 318 318 317 317 316 317 318 318 318 318
356 339 333 340 339 333 334 335 332 335 342 340 339 342 339 337 342 347 338 328 333 343 339 330 333 339 339 335 335 335 335 333 333 334 333 332 331 330 329 329 329 329 329 330 333 335 336 336 336 330 326 328 330 329 328 329 328 327 326 325 324 323 322 322 321 320 320 319 319 319 319 319 318 318 318 318 318 318 318 317 317 317 317 317 317 317
355 336 330 338 339 335 335 334 334 337 335 332 335 337 335 336 340 344 338 330 333 341 338 333 335 338 337 335 333 334 334 333 333 333 331 331 331 330 330 330 330 329 329 329 329 329 330 332 336 332 326 327 329 328 329 329 328 328 327 326 325 324 323 323 321 321 320 320 320 320 320 319 319 319 318 318 318 318 318 318 317 317 317 317 317 317
343 334 331 338 339 337 337 335 335 337 335 333 333 332 332 334 334 336 337 333 334 337 335 335 337 336 334 332 331 332 332 330 330 329 329 329 328 329 330 331 331 330 329 329 328 327 326 327 329 327 325 326 327 328 329 329 328 328 327 327 326 325 324 323 322 322 321 320 320 320 320 320 319 319 319 318 318 319 318 318 318 318 318 318 318 318
337 330 331 343 344 336 334 336 334 333 335 335 334 332 333 335 334 335 335 335 337 337 332 333 339 338 333 330 330 331 329 327 326 326 326 326 326 327 328 329 330 329 329 329 328 328 327 326 326 325 324 325 326 327 328 328 328 328 328 328 327 326 325 324 323 322 322 321 321 321 321 320 319 319 319 319 318 319 318 319 318 318 318 318 318 318
344 332 330 346 351 338 332 334 335 335 336 337 335 333 334 336 336 335 333 333 336 335 335 339 343 338 332 330 330 329 326 325 324 323 323 323 323 324 325 326 327 327 328 328 327 327 327 327 326 325 324 324 325 326 327 327 328 328 328 329 328 327 327 325 324 323 322 323 322 321 321 321 320 320 320 319 319 319 319 318 318 318 318 318 318 318
347 339 334 343 349 340 333 336 339 339 339 339 335 332 333 334 334 333 334 333 332 332 337 341 339 334 331 330 330 329 325 323 322 321 320 320 320 321 321 322 323 324 324 325 324 323 324 324 324 324 324 324 325 326 327 327 327 328 328 328 328 328 328 327 326 324 324 323 323 322 322 322 322 321 321 321 321 320 320 319 318 318 318 318 318 318
346 346 339 342 346 339 333 337 340 338 339 338 333 332 332 332 333 333 334 333 331 331 333 334 333 332 332 331 330 328 325 323 321 319 318 318 318 319 319 319 320 320 321 321 321 320 320 321 321 321 321 322 323 325 327 328 328 328 328 328 328 328 328 328 327 326 325 324 323 323 323 322 322 322 322 322 322 321 321 320 319 319 318 318 318 318
348 347 340 338 341 338 337 341 342 340 339 335 333 335 334 331 332 332 331 332 331 330 331 332 332 331 331 331 330 327 324 322 321 319 317 317 316 317 317 317 317 317 318 318 318 318 318 318 318 318 318 320 321 323 326 328 328 328 328 328 327 327 328 328 328 327 326 325 324 324 324 323 323 322 322 323 322 322 322 321 320 319 319 319 318 318
351 347 340 334 329 331 339 340 336 335 333 331 333 335 335 333 332 330 329 331 331 330 331 332 331 330 330 331 331 329 326 324 323 320 317 316 315 315 315 315 315 315 315 316 316 316 316 316 316 316 317 317 319 321 324 326 327 328 328 328 327 327 327 327 328 327 327 326 325 325 324 324 323 323 323 322 322 322 322 321 321 320 319 319 319 318
344 341 342 336 326 327 337 335 331 334 335 335 336 333 333 335 332 331 332 330 329 330 331 331 331 330 330 330 331 331 328 327 328 325 319 315 315 314 314 314 313 314 314 314 314 315 314 314 314 314 315 316 317 319 321 323 326 327 327 327 327 327 327 327 327 327 327 326 326 325 325 325 324 323 323 322 322 322 322 322 321 320 320 319 319 319
332 334 342 341 328 326 334 333 332 337 338 337 336 331 331 334 331 332 337 334 329 330 330 330 331 330 330 329 331 332 331 331 332 328 320 316 314 313 313 313 312 312 312 311 312 312 312 312 313 313 314 315 316 317 319 321 322 323 324 324 325 326 326 326 326 327 326 326 326 326 325 325 324 324 323 323 323 322 322 322 321 321 321 320 319 319
330 332 338 341 332 328 335 336 334 336 334 334 333 329 330 333 330 331 338 337 330 329 330 330 330 330 330 328 328 331 333 333 333 327 319 315 314 312 312 312 311 311 310 309 309 310 311 311 311 312 313 314 315 316 318 319 320 321 321 322 323 324 324 324 325 326 327 327 327 326 326 325 325 324 324 323 323 323 322 322 322 321 321 320 320 320
340 339 339 339 333 329 332 333 331 332 333 332 332 331 330 330 328 332 341 338 329 328 330 330 330 331 330 328 328 330 331 331 330 323 316 314 314 312 311 311 310 309 309 309 309 309 310 310 310 311 311 312 313 315 317 319 320 320 321 321 322 323 324 325 326 327 327 327 327 326 326 326 325 325 325 324 324 323 323 323 322 322 321 321 321 321
341 339 334 334 333 332 335 336 333 333 333 330 331 331 329 328 329 335 339 333 328 329 329 328 330 331 329 328 328 326 324 323 321 317 314 313 313 311 310 309 309 308 308 308 308 309 309 309 309 309 310 311 313 314 316 317 318 318 319 319 320 321 323 325 327 327 328 328 327 327 326 326 326 325 325 325 324 324 324 324 323 323 322 322 322 321
335 334 332 333 332 328 331 335 335 333 329 326 329 328 325 329 336 336 331 326 326 329 327 327 329 327 325 325 324 322 320 318 316 314 313 312 311 310 309 307 307 307 307 308 308 308 308 308 308 308 308 309 311 312 314 315 315 316 316 316 317 319 321 324 326 327 328 327 327 327 327 326 326 325 325 325 324 324 325 324 324 323 323 323 323 322
331 334 336 334 327 327 333 336 336 334 327 324 328 328 326 330 334 331 326 325 326 326 325 326 326 324 322 322 321 320 318 316 315 313 312 310 310 309 307 306 306 306 307 307 308 308 308 308 307 307 307 307 309 310 311 313 314 314 315 315 316 318 320 321 323 325 326 326 326 326 325 325 325 325 325 325 324 324 325 324 324 324 323 323 323 323
327 332 338 332 325 331 342 338 332 331 326 323 327 331 330 329 328 328 328 327 326 326 325 325 324 322 322 322 320 319 317 315 314 312 311 310 309 307 306 305 305 306 306 307 307 307 307 307 307 307 307 307 307 308 309 311 312 313 314 314 314 316 318 319 320 321 321 321 322 322 322 321 321 322 322 322 323 323 323 324 323 323 323 323 323 322
324 326 333 332 324 326 333 330 326 328 326 323 325 328 328 327 326 327 329 327 326 325 324 324 324 322 320 320 320 318 316 314 312 311 310 310 308 307 306 305 304 305 306 306 307 307 306 306 306 306 306 306 306 306 307 308 309 311 312 312 313 315 316 316 317 318 317 317 317 317 318 318 318 318 319 319 320 319 318 319 319 319 319 320 320 320
325 324 327 332 327 323 325 326 326 328 327 324 325 325 324 325 325 325 326 326 325 324 323 322 322 321 319 319 320 319 315 313 311 310 309 309 307 305 304 304 305 306 306 306 306 306 305 305 305 305 305 304 304 304 305 307 308 309 310 311 312 313 314 315 315 315 315 316 315 315 315 315 315 316 316 317 317 316 314 313 313 312 313 314 314 314
326 326 328 331 328 326 328 328 328 328 327 325 325 324 324 324 324 323 325 325 323 322 322 321 321 320 318 318 319 317 314 312 311 310 308 309 308 305 303 304 305 305 305 306 306 305 305 304 304 304 304 303 303 303 304 306 308 308 309 309 310 311 312 313 313 313 313 314 314 314 315 314 314 313 313 312 312 311 309 307 307 306 307 308 310 311
324 327 330 328 327 328 330 328 327 327 326 325 326 326 325 325 324 322 322 320 319 319 317 316 316 319 319 317 316 315 314 312 312 311 309 309 307 304 303 304 305 305 306 306 306 305 305 305 304 304 304 303 303 303 303 304 306 307 307 307 307 308 309 310 310 311 312 312 313 313 313 313 313 313 310 308 306 306 305 305 304 303 303 303 304 305
326 329 328 326 328 330 328 327 327 328 327 327 326 323 323 323 323 321 319 318 318 318 317 315 314 314 315 315 314 316 316 314 310 309 311 311 307 304 304 305 305 305 306 306 306 306 306 306 305 305 304 304 303 303 303 303 303 304 305 305 305 305 306 307 308 309 310 311 310 310 311 312 313 312 309 306 304 304 304 304 304 304 303 303 302 302
327 330 326 326 330 332 330 328 329 330 331 330 326 323 321 321 321 320 319 318 319 319 320 319 315 311 311 311 311 315 320 316 310 308 309 309 307 305 305 305 305 306 306 306 306 306 305 306 306 305 304 304 303 303 303 302 302 303 303 303 303 303 303 304 305 306 307 307 307 308 309 310 311 311 308 306 305 305 304 304 304 304 305 304 304 304
327 328 329 333 335 332 330 328 327 330 332 328 325 324 321 319 321 322 319 318 318 316 316 320 319 315 314 311 308 311 315 313 309 308 308 307 305 305 305 305 305 305 306 305 305 305 305 305 305 304 304 303 303 303 303 302 302 302 302 302 302 302 302 302 302 303 304 304 305 305 305 307 309 310 309 307 306 306 306 305 305 305 305 305 305 305
Wind_Speed
3 4 2 1 1 1 4 5 12 10 9 10 7 6 6 5 2 1 2 4 5 4 1 1 1 4 5 11 12 9 7 8 9 8 8 8 8 7 7 7 8 8 7 7 12 16 17 18 19 20 20 21 20 21 22 22 22 22 21 19 18 18 19 19 19 18 18 18 18 18 18 16 13 10 8 6 4 2 1 2 2 2 2 1 1 1
4 3 3 4 2 3 2 6 13 12 10 9 6 5 2 1 0 2 2 3 3 3 1 2 1 6 8 11 11 10 9 10 10 10 10 10 9 7 8 9 8 6 4 6 9 13 15 16 18 20 21 22 22 22 23 23 24 23 21 20 18 18 19 19 19 19 18 18 17 16 16 16 14 12 9 6 4 4 3 2 2 2 2 2 1 1
4 2 4 2 3 5 6 4 9 12 9 7 6 5 3 2 2 3 3 3 3 3 0 3 5 7 7 8 10 12 12 10 10 9 9 10 10 8 8 9 8 6 5 6 7 10 14 16 18 20 21 23 24 24 24 24 25 24 22 20 18 18 18 18 19 18 18 17 16 14 14 16 15 13 10 6 5 5 4 3 2 1 1 2 1 1
2 4 4 2 4 6 7 4 7 9 7 5 5 5 0 4 0 1 2 1 2 3 3 4 3 5 4 4 8 12 11 7 6 7 6 7 9 9 9 8 8 8 7 7 7 8 12 15 18 20 21 22 23 24 25 25 26 25 23 21 19 17 17 17 18 18 17 16 15 14 15 17 15 13 10 8 7 6 5 4 2 1 0 1 1 2
2 4 2 5 6 5 4 3 6 7 5 4 4 4 4 4 2 2 1 1 1 0 1 2 2 4 2 3 6 7 8 7 5 6 7 7 8 7 7 7 8 9 9 9 9 9 11 14 17 19 21 22 23 25 27 27 27 26 24 22 20 18 16 16 18 19 18 16 16 16 17 16 14 12 11 10 9 8 6 4 2 1 1 1 2 3
2 4 3 8 5 0 1 2 4 6 5 3 3 4 4 4 4 2 1 2 3 3 2 1 1 4 3 2 5 4 6 9 8 8 10 9 7 7 7 8 9 9 8 9 9 9 10 12 15 18 20 22 24 26 28 29 29 27 26 23 21 18 16 15 18 20 19 17 17 18 19 16 14 14 13 12 10 7 6 4 2 1 0 1 2 4
1 2 2 6 7 5 2 1 2 4 5 2 1 2 4 6 5 3 3 3 2 0 3 1 3 3 5 3 5 4 7 11 9 9 11 9 8 9 8 8 9 8 8 7 8 8 10 13 15 17 21 24 25 26 28 29 29 28 26 24 22 19 16 16 20 21 19 17 17 18 20 18 15 16 14 12 9 6 5 4 3 1 1 1 3 4
1 1 2 4 4 3 2 1 1 3 5 2 1 2 4 6 6 4 4 3 1 2 2 3 3 1 4 4 4 3 7 9 9 10 10 8 9 10 9 9 10 10 9 8 8 9 10 14 17 19 23 25 26 26 28 29 30 29 27 25 23 20 17 17 22 23 21 18 16 17 19 18 16 16 14 13 11 8 6 5 4 3 2 3 3 5
1 3 3 3 3 2 1 1 1 3 5 1 1 1 3 7 7 4 4 2 1 1 2 3 2 2 4 5 3 1 4 6 9 12 11 10 10 10 10 10 10 10 10 9 10 10 11 16 21 23 23 24 25 26 28 30 30 29 28 26 24 21 18 19 22 24 22 19 16 16 18 17 16 16 15 13 12 10 8 7 5 4 4 3 4 5
1 2 2 1 2 2 1 1 3 5 5 2 1 4 6 8 6 4 3 2 2 3 1 4 2 2 3 5 3 1 2 6 9 10 10 10 9 9 10 10 10 9 8 9 10 10 14 18 20 20 20 22 24 25 28 29 30 30 28 27 25 23 20 20 23 25 23 20 17 17 18 17 17 18 15 14 14 12 10 9 7 6 5 4 4 5
3 4 3 0 2 1 2 4 7 7 5 2 3 6 7 6 5 3 2 2 3 2 3 5 4 3 2 4 3 2 3 5 6 6 5 7 9 10 10 9 10 9 8 9 9 10 13 15 15 16 18 20 22 24 25 27 29 30 30 29 27 24 22 21 23 25 24 22 20 19 18 17 18 18 17 16 16 14 13 12 10 8 7 6 5 5
5 6 5 2 1 1 4 6 6 5 4 4 4 4 4 4 3 2 2 3 3 1 4 2 3 4 1 4 4 4 6 5 5 6 5 8 10 10 9 9 10 10 9 9 8 8 9 10 12 16 19 20 22 23 25 28 29 31 31 30 29 26 24 23 25 26 25 24 22 20 19 18 18 19 19 18 18 17 16 14 12 10 9 8 8 7
3 4 3 2 1 2 3 5 4 3 3 3 4 3 3 2 2 2 2 2 1 1 3 1 3 2 2 6 6 7 7 7 6 6 6 7 9 9 9 10 9 8 9 9 8 8 8 8 12 17 19 21 23 25 28 29 30 31 32 31 31 29 27 25 26 27 26 25 24 22 20 20 19 19 20 20 20 19 18 16 14 13 12 11 10 9
1 2 5 3 2 4 5 4 2 0 1 2 3 3 3 1 2 2 1 1 1 1 3 2 2 1 3 4 5 7 8 8 7 6 6 6 8 8 9 8 8 8 9 8 8 9 8 9 13 17 20 22 24 26 28 29 30 31 31 32 33 31 29 27 27 28 28 27 26 24 22 21 21 20 20 22 22 20 18 17 15 14 13 12 11 9
3 2 5 8 4 6 9 5 4 4 3 2 3 4 2 2 1 0 1 1 1 1 3 4 1 1 1 3 5 6 7 6 4 2 4 3 4 5 5 6 7 8 8 8 8 9 10 12 16 18 20 22 24 26 27 29 30 31 32 33 34 33 31 30 29 29 30 29 28 25 24 23 22 21 21 23 23 21 19 17 16 16 15 13 12 10
3 3 4 5 4 9 10 4 4 5 2 1 2 3 1 3 3 1 1 3 3 1 1 2 1 3 3 4 6 6 6 5 5 4 3 4 4 5 5 5 7 7 8 8 8 9 10 13 16 18 20 22 24 25 27 29 30 32 33 34 34 34 34 32 31 30 31 32 30 28 26 24 23 22 23 25 25 22 19 17 17 17 17 15 13 11
3 2 3 0 2 8 9 6 6 5 2 1 2 2 4 4 5 4 1 1 3 4 1 1 2 4 3 2 6 9 9 8 7 6 3 4 5 6 6 6 6 7 8 8 9 10 10 12 16 19 21 22 24 26 29 31 33 34 34 34 34 34 34 34 33 31 32 33 32 31 29 27 25 25 25 27 26 23 20 19 18 19 19 17 15 13
3 1 4 2 4 5 5 6 5 5 5 4 2 4 2 2 3 3 2 3 4 3 1 2 2 4 3 2 7 12 12 10 8 6 4 2 4 5 6 6 7 7 8 8 8 8 8 11 15 19 21 24 26 28 31 33 34 34 34 35 35 34 35 36 35 33 33 34 34 34 32 29 27 26 28 29 26 23 21 20 20 21 21 19 17 16
4 2 6 1 2 3 1 5 1 3 4 4 3 3 2 2 1 1 2 1 2 2 1 3 3 2 1 2 8 10 10 11 10 7 2 2 4 6 6 6 6 6 6 7 7 7 8 10 15 19 21 24 27 29 31 32 32 32 33 34 35 36 37 37 36 35 34 34 35 35 34 31 28 28 29 30 27 24 23 23 22 22 23 22 20 19
3 3 3 2 1 1 3 2 1 4 5 3 2 1 1 2 3 1 1 2 3 3 1 2 3 2 2 3 6 8 9 10 9 7 4 4 5 5 5 5 6 6 6 7 8 8 9 11 16 21 23 25 27 28 28 27 28 31 31 32 33 34 34 34 35 35 35 35 36 36 35 32 30 29 31 31 28 25 25 24 23 23 23 23 23 22
2 3 2 2 2 2 1 3 5 5 4 2 1 3 1 1 1 1 2 2 3 4 2 2 2 2 3 3 4 7 9 9 8 7 5 4 5 5 5 4 5 6 7 7 8 8 8 10 16 20 22 24 24 24 25 25 28 29 29 31 31 31 31 32 33 35 35 35 35 35 35 34 32 31 32 32 29 27 26 26 25 25 23 23 24 24
1 2 3 0 0 3 4 5 6 6 5 5 3 4 3 3 2 2 2 2 2 3 3 4 2 3 4 2 4 6 6 7 7 6 5 5 5 5 5 5 5 6 6 7 7 7 7 8 13 16 19 20 20 22 24 25 26 27 29 30 30 30 31 32 33 35 35 35 35 35 35 34 33 32 33 33 31 29 28 27 27 27 25 23 22 23
2 3 3 1 3 5 7 5 2 4 4 5 2 1 3 3 3 4 2 1 2 3 1 4 3 4 4 3 4 4 4 5 7 7 6 7 6 5 5 5 4 5 6 6 6 6 6 7 11 13 16 18 20 22 23 25 27 28 29 29 29 30 32 33 34 34 34 34 35 35 35 35 34 33 34 34 33 32 30 29 29 28 28 25 22 21
1 3 3 1 3 4 5 4 3 2 4 4 3 2 2 1 2 5 5 4 3 2 0 3 2 4 4 5 5 5 5 6 9 9 8 8 8 7 6 6 4 3 4 4 6 5 4 7 9 11 14 17 20 22 24 25 27 27 28 29 30 32 33 34 33 32 33 34 34 35 35 35 35 34 35 35 34 33 31 30 30 30 30 28 24 22
0 1 3 3 3 5 5 6 5 4 4 2 2 4 3 3 4 3 2 3 3 1 2 4 1 5 5 6 8 10 11 11 10 9 7 7 8 8 7 7 6 5 5 3 3 4 5 6 7 10 14 17 19 21 23 24 25 25 27 29 31 32 33 33 32 32 33 34 34 34 35 35 36 35 35 36 35 34 32 31 30 30 31 30 28 25
2 2 3 5 3 1 1 2 2 2 3 1 3 6 5 5 4 1 1 4 2 0 3 5 3 5 6 9 13 14 13 12 12 11 9 8 8 8 7 7 7 6 6 6 5 3 3 5 5 9 13 16 18 19 20 21 22 24 26 28 30 30 30 30 31 32 32 33 34 35 35 36 36 36 36 36 36 35 34 32 31 31 31 32 31 29
4 2 2 6 5 5 6 4 3 1 3 2 5 7 6 5 3 3 3 2 3 3 3 1 3 1 8 12 12 12 12 11 11 12 11 10 9 9 8 8 8 7 7 6 6 4 4 4 5 6 10 12 14 16 18 19 22 23 24 26 28 28 29 30 30 30 31 32 33 34 35 36 37 37 37 37 36 36 35 33 32 32 32 33 33 31
5 3 3 5 3 1 4 1 2 5 5 3 4 6 7 7 5 6 4 1 3 4 2 2 2 3 6 9 10 11 11 9 10 12 11 9 9 9 8 9 10 10 9 9 8 7 6 6 6 6 9 11 12 14 17 19 22 23 24 26 27 27 29 29 29 30 31 31 32 33 36 37 37 37 37 37 36 35 35 35 34 34 33 33 33 33
6 2 2 4 6 5 3 3 6 8 6 4 5 6 7 8 8 7 3 1 2 5 3 2 4 5 4 7 9 10 10 9 10 10 9 9 10 10 10 12 12 12 12 11 11 10 9 8 6 6 8 11 12 14 16 18 21 22 24 26 26 27 29 29 29 30 31 31 32 34 35 36 35 35 35 35 35 35 35 36 36 36 35 34 34 35
5 2 2 3 6 8 7 5 5 7 6 5 8 7 6 8 9 8 4 3 5 8 5 4 7 6 5 6 7 8 8 7 7 8 9 11 13 12 13 13 12 12 12 12 11 11 10 10 9 8 9 10 10 12 14 16 19 21 23 24 24 26 28 27 28 30 30 32 34 35 35 34 32 31 30 30 32 34 35 36 36 36 36 36 36 36
4 1 1 3 5 6 6 6 6 7 9 8 9 8 7 7 7 7 6 5 6 6 3 3 6 5 4 5 6 7 8 8 9 11 11 12 12 12 13 13 13 12 12 12 12 11 11 11 11 11 12 12 12 12 12 14 14 15 18 20 22 24 25 25 28 29 30 33 35 34 31 27 22 22 23 25 27 30 32 34 35 35 36 36 36 37
4 3 1 4 5 3 2 5 5 4 8 10 9 9 9 6 6 6 5 5 3 2 2 4 4 3 4 4 5 7 9 10 11 11 11 10 11 12 12 12 13 13 13 13 13 13 13 13 12 12 13 15 15 14 13 13 13 13 16 17 18 20 21 23 27 29 31 33 32 25 19 17 19 21 25 28 29 30 31 31 31 32 34 35 36 36
3 4 2 3 4 1 1 2 4 3 5 4 3 5 6 4 3 4 6 6 4 2 2 3 2 2 4 4 5 8 10 10 10 10 9 9 10 11 11 11 11 12 12 12 13 13 13 12 13 14 15 16 17 16 14 12 11 13 14 15 15 16 18 22 26 28 30 29 23 16 15 20 25 25 28 32 33 32 31 29 29 30 32 33 35 35
3 4 3 2 4 3 3 5 4 3 1 3 4 1 2 2 2 3 5 6 5 3 3 3 2 3 4 4 5 7 7 7 7 7 7 8 8 8 9 10 10 11 12 12 13 13 12 13 16 18 18 19 18 17 16 14 11 10 10 10 12 13 16 20 24 25 24 20 17 16 19 23 26 28 31 34 33 31 30 29 29 30 31 32 33 32
3 4 2 1 3 4 1 5 4 1 4 5 3 2 2 2 3 5 6 5 5 5 4 4 4 4 4 3 2 5 6 5 6 7 8 8 7 7 8 9 10 11 12 12 12 12 13 16 19 20 22 22 21 21 21 20 18 14 11 8 7 9 13 17 20 21 20 18 18 20 22 23 26 30 33 32 31 31 31 31 30 30 31 32 33 33
5 4 3 2 2 2 2 4 1 4 5 3 3 3 1 2 3 5 4 3 3 4 3 4 4 4 4 3 1 4 5 4 5 7 8 8 8 8 8 8 9 10 10 11 12 13 15 18 18 20 21 21 23 24 25 23 20 17 14 11 8 7 8 11 15 17 17 18 19 20 21 24 27 29 31 31 30 30 31 32 31 31 30 30 32 33
5 4 3 3 2 2 3 2 1 3 4 3 2 2 1 1 2 4 4 1 2 2 2 3 4 4 4 4 3 2 4 1 4 6 7 9 9 8 8 8 9 9 10 12 14 15 18 19 19 20 21 22 26 28 27 24 22 20 19 17 14 12 9 7 10 12 14 16 18 19 21 23 26 28 30 30 29 30 32 31 31 31 30 29 30 31
5 2 3 4 2 2 3 2 1 2 3 4 4 2 1 2 3 5 4 1 2 2 2 3 5 5 4 5 4 1 4 0 4 4 6 8 8 8 8 9 10 11 11 14 16 17 19 21 20 21 23 26 29 30 28 25 23 22 22 21 20 18 15 13 11 11 12 15 17 18 19 21 24 27 28 28 29 31 32 30 30 31 30 29 30 31
7 4 4 5 3 1 4 3 2 2 3 5 4 1 3 1 3 5 4 2 2 1 2 3 5 5 4 4 4 2 3 2 2 2 5 7 7 7 7 8 11 14 14 16 17 17 18 19 20 23 27 29 29 29 27 26 25 24 23 23 23 23 21 19 17 14 13 14 15 16 18 20 22 24 26 28 29 31 31 31 32 31 28 27 28 29
6 5 4 5 3 2 3 2 2 2 2 4 4 2 3 1 4 6 2 3 3 1 2 3 5 3 3 3 4 4 3 1 0 1 4 5 5 7 8 8 10 13 15 18 19 18 17 19 22 24 27 27 25 25 25 25 24 24 22 22 24 25 24 22 20 17 14 12 13 14 16 18 20 23 25 27 29 29 30 30 29 26 25 26 27 27
3 3 3 4 3 3 3 2 1 2 3 4 3 3 3 1 5 4 2 4 2 1 1 2 4 3 3 4 4 4 3 3 2 2 4 5 5 7 9 10 10 12 15 18 20 20 20 21 23 24 23 23 23 24 24 23 23 23 22 22 23 24 23 22 20 18 14 12 12 13 15 17 19 21 23 25 27 28 28 26 23 23 25 25 25 25
1 2 2 2 2 2 3 2 1 2 4 3 1 2 0 3 2 2 3 2 2 2 2 3 4 3 4 5 5 4 3 4 4 4 4 5 5 6 9 12 12 14 17 19 21 22 21 21 23 24 23 24 24 24 24 23 22 22 22 23 24 24 21 19 18 17 15 13 12 12 13 14 17 18 20 22 23 25 27 24 20 21 24 24 24 24
2 2 1 1 2 2 2 3 1 1 3 2 1 1 2 2 3 4 2 2 2 3 4 4 4 3 4 5 5 5 4 4 4 4 4 5 5 6 8 11 12 13 16 18 20 21 20 20 21 22 23 24 25 24 24 23 22 22 22 23 24 23 21 19 17 17 16 16 15 14 12 11 12 13 14 17 18 19 22 21 19 19 20 20 21 23
2 2 2 2 2 2 2 1 2 3 3 2 2 2 1 2 3 3 3 3 1 2 3 3 3 3 4 6 5 4 4 4 4 4 4 4 5 6 8 11 12 13 15 16 18 19 20 19 19 20 23 26 26 26 26 24 22 22 23 23 23 22 22 22 21 20 20 20 20 18 17 17 15 14 12 10 10 10 12 14 16 18 18 18 19 20
1 2 3 3 2 3 3 3 3 2 2 2 1 3 1 2 2 3 4 4 2 2 2 3 4 3 4 5 5 4 4 4 4 4 4 4 5 6 7 10 12 13 14 16 18 19 19 18 19 21 24 26 27 27 26 25 24 23 23 22 22 23 23 23 25 25 24 25 25 24 25 25 25 24 22 20 17 15 15 13 12 11 11 11 11 11
1 0 2 3 2 2 2 1 1 1 2 3 3 2 3 4 3 3 5 4 2 2 3 3 4 4 3 4 4 4 4 4 4 4 4 4 4 6 8 10 12 14 16 17 18 19 19 20 22 23 24 26 27 27 26 26 25 24 22 22 23 24 24 25 26 26 25 25 25 25 27 29 29 29 29 28 27 28 28 28 27 27 27 24 22 20
2 1 3 3 2 2 1 1 1 2 1 2 4 4 4 5 4 3 5 4 3 4 4 4 5 4 4 4 5 5 4 4 5 4 4 3 4 5 8 10 11 14 15 16 16 17 19 21 21 21 22 24 26 26 26 26 25 24 22 23 24 24 25 26 26 25 25 25 25 25 26 26 26 28 30 30 30 31 32 34 35 36 36 34 30 27
1 3 3 2 2 2 1 1 1 3 2 2 3 3 4 5 5 4 4 4 4 4 4 4 5 4 3 4 5 5 4 4 4 4 4 3 3 5 7 9 10 12 13 15 16 18 18 18 18 18 19 21 22 24 25 25 25 23 23 24 24 25 26 27 26 25 25 25 24 24 24 24 23 25 28 30 31 31 29 30 33 35 34 32 31 28
1 3 2 1 3 3 2 2 3 3 3 3 2 2 3 4 5 5 5 5 6 6 5 5 6 5 4 4 4 5 5 4 3 4 4 3 3 5 6 8 9 11 13 14 16 16 17 17 17 17 18 19 20 22 23 24 24 23 23 24 24 25 26 26 26 26 25 24 24 24 23 24 23 23 24 26 30 31 29 28 29 30 29 28 27 27
2 2 2 3 4 2 3 4 5 3 0 2 3 3 4 4 6 7 5 5 6 5 5 5 6 6 6 5 4 5 5 2 1 3 5 4 3 4 6 7 9 10 12 13 14 15 16 16 16 17 17 18 19 21 22 23 23 23 23 23 23 24 25 25 25 25 24 23 23 23 23 24 23 22 22 24 26 28 27 26 25 25 25 23 22 21
3 5 4 5 4 4 5 6 6 3 2 3 4 5 5 4 6 7 6 6 5 5 6 6 5 4 4 3 4 6 6 4 3 4 4 4 3 4 4 6 7 8 10 12 14 15 15 15 15 15 16 17 18 20 20 21 21 21 21 20 20 21 22 23 23 24 23 22 21 21 22 23 22 21 20 20 20 21 20 19 18 18 18 17 17 16
Wind_Direction
87 79 76 235 216 206 240 158 119 114 104 95 82 91 133 167 216 244 111 135 131 120 190 79 359 282 225 203 201 192 191 203 204 194 194 194 193 193 190 194 195 203 209 189 188 191 187 187 188 189 188 186 185 185 185 184 184 183 182 180 179 179 183 186 184 180 178 177 175 175 178 181 179 178 179 173 174 182 156 102 77 70 50 359 286 272
62 87 201 230 308 17 49 120 118 113 101 94 85 68 62 143 241 306 65 94 108 94 48 89 218 253 226 205 201 192 197 209 204 194 194 194 195 193 189 196 200 200 181 166 185 189 185 184 185 187 186 185 185 185 187 186 184 183 183 183 180 181 187 192 193 188 185 183 181 180 182 186 185 184 185 183 185 189 183 156 117 93 54 28 359 244
40 293 266 314 16 44 58 84 105 109 104 90 86 71 12 327 357 1 24 53 105 97 224 192 205 240 235 207 199 199 204 212 207 199 198 193 192 192 191 197 196 190 175 175 186 185 184 182 181 185 186 188 188 187 188 187 185 184 184 184 183 185 189 196 199 194 189 187 185 184 185 187 187 185 186 191 190 187 194 188 164 129 47 11 342 231
53 288 289 14 40 60 67 57 85 97 91 82 93 92 252 259 290 49 4 42 143 153 191 191 213 259 252 203 202 208 211 216 210 206 210 200 197 197 193 192 189 188 187 186 188 184 183 181 181 184 185 188 189 189 189 187 186 186 185 186 187 188 192 199 201 195 189 183 181 183 184 185 185 183 184 189 190 188 198 201 189 187 337 313 279 226
91 297 326 74 48 38 60 65 83 89 78 95 137 144 190 216 167 140 193 176 105 53 187 139 355 301 256 191 212 214 212 219 208 199 213 214 207 198 187 189 192 192 189 185 188 189 185 183 184 186 187 188 189 191 191 190 189 188 188 189 192 194 197 202 202 195 188 180 178 178 177 178 178 176 180 186 187 189 200 208 204 207 273 258 228 210
62 315 21 96 100 265 233 86 105 109 106 134 183 179 160 134 112 87 59 79 56 16 304 79 35 296 293 238 226 202 202 219 209 202 211 210 203 195 188 193 196 196 192 189 191 187 185 186 185 188 189 189 191 194 194 193 193 192 192 193 195 199 201 203 201 195 189 183 180 178 174 172 170 173 183 192 193 191 196 201 203 199 208 207 198 195
62 322 27 104 134 176 175 83 128 117 110 125 140 140 125 102 100 77 51 66 82 214 273 59 130 263 313 290 236 199 203 218 212 212 216 205 198 197 195 196 195 194 192 193 192 183 185 186 186 190 193 193 194 195 195 194 194 195 195 195 197 201 202 201 197 194 192 189 185 185 184 182 181 185 193 201 200 191 191 192 193 186 127 156 183 182
18 21 54 89 104 126 115 37 212 124 103 86 9 127 129 95 90 84 70 73 148 209 308 12 115 181 303 284 265 210 206 227 227 224 222 208 202 200 197 197 194 194 190 188 189 188 191 190 192 195 196 197 197 195 195 194 195 196 197 198 200 202 202 199 197 196 197 196 192 191 191 190 193 199 204 204 197 191 194 194 188 182 145 146 176 179
2 51 48 76 77 76 135 202 209 108 92 98 276 155 113 86 86 89 77 64 353 65 341 317 102 111 271 274 318 142 196 240 241 230 224 211 203 199 199 198 195 195 189 187 190 193 196 196 198 199 196 197 197 196 197 196 197 198 198 200 201 202 203 201 199 200 201 203 204 198 194 195 199 206 210 203 196 194 198 200 194 188 168 154 169 181
29 68 14 61 94 64 141 100 58 77 95 163 166 78 69 68 67 62 67 55 24 54 302 256 165 120 276 281 328 40 203 243 243 236 224 207 199 197 201 199 194 194 190 191 195 196 201 203 201 198 195 196 197 198 199 199 199 199 200 201 202 203 205 203 202 203 203 205 210 206 199 200 202 207 211 202 196 199 202 204 203 197 188 175 172 180
330 331 329 349 113 89 109 71 50 72 99 100 49 51 52 51 41 36 50 54 52 36 268 241 176 126 320 283 256 204 219 228 236 249 225 192 194 196 198 198 191 191 191 192 197 200 203 202 197 193 194 195 197 199 200 200 201 201 202 202 204 205 206 205 204 204 206 208 212 212 207 206 208 212 213 203 198 202 205 208 210 205 199 194 193 195
308 318 329 338 32 73 79 63 41 54 68 48 47 54 56 40 8 14 7 27 74 4 289 264 128 98 68 270 260 246 254 247 233 242 224 196 197 195 193 194 191 190 191 190 194 196 191 185 184 189 194 194 194 196 199 201 202 202 203 204 205 206 206 207 206 205 208 211 213 216 214 213 215 218 216 210 206 208 211 213 213 210 207 205 208 213
256 248 252 309 295 182 97 68 40 22 36 61 74 70 65 46 359 20 346 343 89 278 305 124 108 76 233 247 265 274 278 270 244 234 228 208 199 193 191 190 189 188 187 188 192 190 183 181 185 189 191 191 192 196 199 200 201 202 204 205 206 207 207 209 209 208 210 213 215 217 217 217 220 223 222 218 215 214 215 217 216 215 214 214 218 223
175 205 198 214 246 191 161 130 114 294 190 143 129 118 106 96 38 23 291 340 58 274 325 59 107 337 293 268 275 286 294 287 265 241 224 213 198 192 191 185 182 184 186 189 191 188 189 191 192 192 192 192 194 197 199 200 201 202 204 205 207 209 209 210 211 211 213 215 217 219 220 219 223 227 226 223 220 218 218 221 224 225 224 226 231 233
89 33 191 196 203 177 181 177 141 145 158 166 156 127 128 183 129 296 225 122 122 280 348 9 43 182 268 302 293 293 302 306 299 237 193 185 176 161 160 168 173 183 188 188 190 193 196 196 195 194 194 195 197 198 199 201 202 203 205 207 208 209 210 211 213 214 215 217 218 220 222 222 227 233 231 226 223 220 220 223 229 231 232 236 241 242
69 352 228 212 201 173 180 182 115 108 94 176 144 103 248 219 148 96 141 149 154 121 13 325 262 213 220 280 304 327 339 353 16 33 87 105 122 127 141 174 179 186 189 186 193 199 199 196 194 195 196 197 199 199 200 203 203 205 207 208 209 211 211 212 214 215 217 217 218 220 222 225 230 234 232 227 223 221 222 226 232 235 236 241 244 243
74 338 295 17 179 186 181 173 159 148 116 126 147 183 233 184 124 109 92 51 77 87 54 292 302 309 328 319 325 355 3 1 11 15 49 101 131 145 169 188 184 188 191 190 197 199 196 194 194 196 197 198 199 201 203 205 206 207 208 209 210 211 212 213 215 216 218 218 219 221 223 227 231 231 229 225 223 223 224 227 234 237 238 241 243 243
123 24 293 135 158 219 193 156 169 171 141 130 187 227 217 115 104 114 101 16 41 85 316 353 7 327 11 18 330 351 356 343 343 351 7 81 148 174 195 199 192 192 192 195 199 199 197 195 195 198 199 200 202 204 206 208 209 210 210 210 211 211 212 214 215 217 218 219 220 221 223 228 231 229 226 224 224 226 226 227 232 235 237 241 243 243
117 63 297 255 150 269 73 105 117 231 186 168 196 209 133 118 205 31 84 88 67 93 312 353 2 315 45 341 324 336 333 318 318 325 324 201 198 205 209 205 197 189 186 195 199 198 199 198 198 199 201 204 206 208 210 210 210 211 212 213 213 213 214 215 216 217 219 219 220 222 223 227 229 228 225 224 225 228 228 228 232 235 238 243 244 244
113 99 272 269 150 28 50 92 210 242 237 258 307 307 29 132 167 122 91 132 115 134 178 19 13 335 245 286 309 308 303 303 306 308 287 243 237 234 224 210 195 190 192 198 200 201 202 201 202 202 203 205 207 210 212 211 211 213 214 214 215 216 216 215 216 217 218 220 221 222 224 227 228 226 225 224 225 228 230 230 232 235 239 244 246 246
85 98 188 291 341 93 111 217 193 187 205 211 265 274 298 60 160 135 69 59 109 131 146 103 45 307 264 279 299 295 295 297 294 293 298 297 287 279 271 238 204 200 202 201 202 205 205 202 204 206 207 209 210 211 211 211 213 215 216 216 217 217 216 215 216 217 218 220 221 222 224 226 226 226 225 225 227 230 232 233 234 237 241 245 248 249
114 124 145 30 349 184 237 242 197 185 186 166 175 212 187 144 136 111 49 356 66 105 149 139 130 268 273 308 315 304 301 308 313 309 320 334 317 289 272 242 212 204 206 207 208 207 205 205 204 205 207 209 211 212 212 212 213 214 216 217 217 217 217 217 217 218 219 220 221 222 224 226 226 226 226 226 228 231 232 234 236 238 240 244 249 251
137 103 98 142 211 221 255 269 208 179 161 139 136 150 136 124 120 118 140 237 60 50 172 116 101 252 263 335 345 338 325 331 356 2 353 346 333 312 296 273 241 216 210 207 207 208 205 202 200 201 204 208 211 213 213 213 214 215 216 216 216 217 218 219 219 219 219 220 221 223 224 226 227 227 227 228 230 232 234 236 238 238 239 241 248 252
99 80 66 321 298 297 299 329 9 73 92 83 34 37 74 59 114 133 158 170 103 50 230 82 60 260 283 344 354 1 5 14 22 16 4 354 342 336 330 321 313 285 251 215 204 206 197 190 191 196 203 208 212 214 215 215 216 216 216 216 216 218 220 220 220 219 220 220 222 223 224 226 228 228 228 230 232 234 236 237 237 237 238 239 245 250
117 59 73 63 6 347 344 353 354 359 35 71 1 353 14 38 62 102 115 86 72 64 136 108 142 255 283 340 359 7 13 20 22 17 15 7 351 343 343 347 351 347 337 305 245 211 187 188 192 199 207 211 214 215 216 217 217 217 218 218 218 220 220 220 219 219 219 220 221 222 223 225 227 229 229 231 233 235 236 237 236 236 237 239 244 248
113 107 102 117 125 150 191 283 272 324 359 7 355 356 6 30 46 81 82 70 83 102 94 112 187 262 314 350 2 5 7 9 8 12 21 20 6 356 354 357 359 1 3 350 326 282 229 222 215 212 215 217 218 218 219 219 219 220 220 221 221 222 221 220 220 219 219 220 220 221 223 224 225 227 230 232 233 235 236 237 236 236 236 238 243 246
105 85 89 125 143 178 189 231 248 124 55 1 341 352 357 357 24 88 87 99 151 128 71 131 193 296 351 353 358 360 2 3 2 7 14 16 14 11 8 10 11 10 9 5 0 353 327 301 277 257 244 234 228 224 221 221 222 222 222 223 223 223 223 221 220 220 220 221 221 223 224 225 226 227 229 232 234 235 236 237 237 237 238 239 241 244
96 43 33 91 65 244 183 154 48 87 80 41 1 1 1 2 31 75 78 132 149 109 50 267 170 89 6 355 356 356 357 360 4 12 15 14 15 14 14 21 24 19 12 9 7 2 347 322 305 295 276 255 238 229 225 224 224 224 225 226 225 223 223 222 219 220 222 222 223 225 227 228 229 228 229 231 233 234 235 237 238 240 241 242 242 244
108 49 13 77 40 20 58 61 71 93 91 63 48 31 19 29 49 69 64 282 130 118 149 174 105 83 26 5 3 3 5 7 10 13 15 18 19 19 21 25 25 19 14 11 4 356 351 340 327 314 291 268 247 233 228 225 226 226 227 228 227 225 225 223 220 220 221 222 225 228 230 231 231 231 231 231 232 233 235 237 239 241 243 244 244 245
110 55 356 88 62 34 25 20 55 93 98 61 39 30 35 49 59 67 54 29 77 98 114 110 93 81 48 18 8 12 18 19 20 19 20 24 23 20 22 23 22 19 16 12 4 358 355 350 345 339 324 301 273 253 241 234 231 230 229 229 228 228 227 224 221 222 222 224 227 230 232 233 233 232 234 234 233 234 235 237 239 240 242 243 244 245
92 123 298 83 66 18 13 35 50 82 98 75 39 23 27 40 47 49 39 32 59 72 51 56 77 68 32 16 14 22 28 31 31 26 23 24 21 20 22 19 17 17 15 12 9 6 3 0 357 352 342 329 309 288 271 260 252 245 241 237 232 232 230 225 223 224 224 227 231 232 232 234 236 237 240 243 242 240 239 239 239 240 241 242 244 245
76 118 24 67 68 348 3 53 30 48 83 73 42 20 15 25 45 50 46 44 63 92 42 41 58 21 342 352 20 34 36 36 33 26 21 19 16 20 22 16 13 12 11 11 11 11 11 9 6 1 354 349 343 332 315 301 290 277 265 254 246 240 235 230 227 227 229 231 234 235 231 233 240 240 240 243 244 244 244 243 242 241 241 241 243 244
88 114 108 84 90 218 261 18 346 3 57 47 355 1 8 15 54 66 62 55 58 111 98 61 58 341 332 350 35 46 41 39 36 27 20 14 12 17 18 14 12 8 7 10 10 10 11 9 7 7 6 8 9 5 357 342 321 302 289 276 265 254 244 238 234 231 233 236 236 234 230 234 238 237 238 242 243 243 244 244 244 244 244 244 244 244
73 95 128 118 113 184 264 344 14 46 94 240 263 349 45 34 53 75 71 59 49 62 83 78 50 2 348 7 61 67 60 56 50 38 28 19 8 9 14 13 10 5 4 6 7 7 5 2 3 5 8 13 15 15 18 18 4 341 322 299 278 263 252 247 242 238 240 241 239 235 233 235 236 235 238 242 243 243 244 245 245 245 245 246 245 244
80 81 110 83 106 156 302 15 47 188 235 239 278 340 113 114 103 102 88 68 61 62 67 66 44 12 359 10 92 112 113 105 80 54 38 26 12 7 11 10 8 8 5 3 2 3 1 359 360 0 3 8 11 15 21 22 18 13 3 343 309 278 263 256 252 249 247 243 240 238 234 232 233 236 239 240 239 241 244 246 248 247 246 245 244 244
119 111 106 57 74 125 43 42 113 244 266 281 314 304 201 114 102 111 91 49 49 56 50 56 47 20 1 343 242 162 157 141 83 55 38 26 16 12 13 8 4 5 4 1 358 357 358 359 360 0 1 6 12 18 20 21 24 27 22 13 357 326 294 275 266 259 253 246 243 242 238 233 234 238 241 241 240 241 244 245 246 247 247 246 245 245
116 126 113 62 49 118 103 68 296 311 317 293 280 281 198 128 133 132 122 331 327 31 40 59 55 26 357 333 309 202 192 207 29 31 23 20 15 10 9 7 3 3 4 3 359 359 2 3 5 7 8 13 19 20 19 21 28 34 32 27 18 6 353 327 296 280 269 260 253 250 246 240 237 238 240 240 240 242 244 245 246 247 247 247 246 246
76 107 139 114 67 101 109 89 11 357 305 254 239 271 302 187 168 134 115 307 300 13 37 57 58 35 1 338 335 219 186 40 11 358 360 8 8 5 4 1 2 4 6 6 4 4 7 8 10 13 16 21 22 21 21 23 27 30 28 23 17 12 10 2 344 319 297 283 272 263 255 247 241 240 241 241 241 244 247 247 247 248 247 246 246 247
48 45 91 102 91 111 116 121 187 197 244 245 230 309 333 239 150 101 66 341 303 20 32 56 61 43 10 353 4 100 136 72 1 328 347 358 359 2 0 354 358 5 9 12 12 10 10 13 17 20 24 24 21 19 21 25 28 28 24 18 14 10 5 358 351 340 321 304 291 277 266 257 249 245 245 244 244 246 248 249 249 249 247 246 248 251
30 22 50 87 101 114 113 124 213 213 248 253 242 282 296 220 102 78 47 274 269 6 34 76 78 53 26 22 33 65 87 93 174 345 352 349 352 6 6 357 356 1 6 11 15 17 19 22 24 25 25 23 19 19 23 26 28 27 21 15 13 9 2 355 350 345 335 319 307 291 276 266 257 252 251 250 249 249 249 250 251 252 250 250 252 254
16 20 60 107 113 101 109 123 257 263 257 255 261 272 259 127 83 80 209 232 226 48 45 95 93 66 48 53 58 67 68 71 89 60 8 355 358 4 5 4 7 12 14 15 18 21 24 27 29 29 27 24 23 23 25 26 28 24 17 13 10 3 359 358 357 354 348 335 323 309 294 281 270 262 259 258 257 258 259 259 257 259 259 257 254 254
60 44 45 81 91 92 117 115 38 285 259 245 262 293 278 110 124 209 209 190 145 125 93 79 83 77 70 71 78 91 81 58 56 49 19 7 3 354 357 5 12 16 18 21 25 26 25 27 29 29 27 27 28 27 26 28 29 24 19 15 8 1 359 4 8 10 9 3 352 336 320 307 295 285 278 273 269 268 270 270 267 265 265 261 258 258
124 110 50 134 133 95 68 62 76 227 252 244 134 54 62 126 189 207 142 85 106 119 99 79 64 67 90 92 82 83 82 63 46 35 20 10 3 357 3 11 14 14 16 21 24 25 27 29 28 27 27 30 31 30 30 32 31 27 23 18 11 9 12 16 21 25 24 21 17 9 3 353 335 320 307 295 286 279 278 279 278 274 270 266 264 265
119 132 176 202 179 121 101 142 194 211 253 263 161 161 186 177 185 171 127 100 93 97 98 88 59 53 97 113 104 92 86 69 49 36 22 11 4 1 5 11 14 16 18 22 24 27 31 31 29 29 32 33 34 34 33 33 32 30 26 20 17 23 29 31 35 38 36 35 37 36 37 36 29 22 13 352 328 312 304 298 290 285 282 279 273 268
233 182 164 160 160 153 165 195 212 227 279 306 138 157 145 89 105 129 120 105 89 91 106 108 95 82 102 115 111 98 87 78 65 49 30 15 8 4 8 13 16 19 22 26 29 31 34 35 33 34 35 35 36 36 34 34 34 31 26 24 27 34 38 42 45 46 43 44 47 51 54 54 52 50 49 47 44 39 32 23 10 358 348 335 322 307
290 126 104 110 132 136 116 109 88 26 349 12 54 81 92 88 92 106 105 96 91 99 103 114 124 124 114 115 111 93 85 90 85 64 43 32 18 13 18 22 23 27 29 29 30 32 36 40 40 37 35 34 35 37 37 38 38 34 30 32 37 41 46 49 50 49 47 47 48 50 55 57 57 57 59 61 63 64 62 58 53 49 45 42 39 35
296 97 85 76 86 99 69 3 67 79 38 48 63 64 72 75 69 78 99 111 114 103 98 104 116 113 96 96 104 97 85 88 89 75 56 49 34 21 25 26 25 28 30 28 30 35 40 42 40 37 34 33 34 36 39 41 42 41 40 42 43 46 50 53 52 50 49 51 50 50 52 54 54 55 58 62 65 68 68 67 64 59 54 50 49 46
268 93 93 75 75 105 161 212 106 91 64 45 67 86 95 87 72 65 81 100 101 88 79 78 87 96 92 88 99 101 83 70 83 90 73 57 44 32 31 30 27 29 32 34 36 39 40 39 37 36 34 32 33 37 41 44 44 45 46 46 47 49 51 52 52 52 52 54 55 54 55 57 59 59 61 64 66 66 65 66 68 67 63 59 58 57
85 67 102 131 88 84 113 134 111 77 19 353 15 87 116 116 105 86 76 85 90 83 73 59 53 65 95 105 107 104 91 71 75 95 91 72 51 40 36 34 35 35 36 36 35 35 36 34 32 33 33 32 35 41 45 47 47 47 48 47 47 49 50 49 51 53 53 55 56 57 57 60 64 67 69 70 70 69 68 68 69 70 70 68 67 66
78 92 136 113 102 139 201 173 149 129 165 243 207 151 138 135 121 108 98 102 108 108 103 82 55 54 79 102 118 114 108 107 106 99 96 86 68 53 45 45 48 45 39 35 34 33 33 32 31 34 35 36 40 45 47 47 47 47 47 46 46 47 48 47 48 48 49 51 54 56 58 59 64 73 79 80 79 77 77 76 73 69 67 65 63 63
151 164 165 141 155 213 214 181 161 138 147 202 180 153 154 150 129 126 137 141 137 140 134 118 102 80 68 80 131 138 140 154 155 128 107 96 87 80 68 57 51 44 35 31 31 31 31 33 35 37 39 41 45 47 45 42 40 40 40 42 43 43 44 45 45 44 45 48 51 55 57 58 62 72 81 86 86 83 80 78 76 70 64 58 54 57